Tracking 19279 objects as of 13-Nov-2018
HD Live streaming from Space Station
objects crossing your sky now

BRAZILSAT B2

Track BRAZILSAT B2 now!
BRAZILSAT B2 is classified as:


NORAD ID: 23536
Int'l Code: 1995-016A
Perigee: 36,064.3 km
Apogee: 36,105.4 km
Inclination: 7.8 °
Period: 1,451.0 minutes
Semi major axis: 42455 km
RCS: 7.5458 m2 (large)
Launch date: March 28, 1995
Source: Brazil (BRAZ)
Launch site: FRENCH GUIANA (FRGUI)

24 C-band; several X-band.
aabbcc
Your satellite tracking list
Your tracking list is empty




NASA's NSSDC Master Catalog

Two Line Element Set (TLE):
1 23536U 95016A   18315.63779712 -.00000315 +00000-0 +00000-0 0  9990
2 23536 007.8105 048.4806 0004832 207.0755 166.2497 00.99242247086564
Source of the keplerian elements: AFSPC